Weather History for KVUJ - December, 2012

Change the Weather History Date:

Tuesday, December 4, 2012

  Actual Average (KHBI) Record (KHBI)
Temperature  
Mean Temperature 56 °F -  
Max Temperature 73 °F 56 °F 74 °F (1956)
Min Temperature 40 °F 35 °F 16 °F (1940)
Degree Days  
Heating Degree Days 8    
Growing Degree Days 6 (Base 50)    
Moisture  
Dew Point 48 °F    
Average Humidity 82    
Maximum Humidity 99    
Minimum Humidity 45    
Precipitation  
Precipitation 0.00 in - - ()
Sea Level Pressure  
Sea Level Pressure 30.29 in    
Wind  
Wind Speed 2 mph (SSW)    
Max Wind Speed 15 mph    
Max Gust Speed 18 mph    
Visibility 10 miles    
Events      
Averages and records for this station are not official NWS values.
T = Trace of Precipitation, MM = Missing Value Source: NWS Daily Summary

Daily Weather History Graph

Daily Weather History Graph

Search for Another Location

Airport or City:

Trip Planner

Search our weather history database for the weather conditions in past years. The results will help you decide how hot, cold, wet, or windy it might be!

Date:

Astronomy

Dec. 04, 2012 Rise Set
Actual Time 7:14 AM EST 5:07 PM EST
Civil Twilight 6:46 AM EST 5:35 PM EST
Nautical Twilight 6:14 AM EST 6:07 PM EST
Astronomical Twilight 5:43 AM EST 6:38 PM EST
Moon 10:45 PM EST (12/4) 11:14 AM EST (12/4)
Length of Visible Light 10h 49m
Length of Day
9h 53m
Waning Gibbous, 69% of the Moon is Illuminated
Dec 4
Waning Gibbous
Dec 6
Last Quarter
Dec 13
New
Dec 20
First Quarter
Dec 28
Full

Hourly Weather History & Observations

Time (EST) Temp. Dew Point Humidity Pressure Visibility Wind Dir Wind Speed Gust Speed Precip Events Conditions
12:15 AM 45.3 °F 44.2 °F 96% 30.32 in 10.0 mi Calm Calm - N/A   Clear
12:35 AM 44.1 °F 43.3 °F 97% 30.32 in 7.0 mi Calm Calm - N/A   Clear
12:55 AM 43.9 °F 42.1 °F 93% 30.31 in 10.0 mi Calm Calm - N/A   Clear
1:15 AM 43.7 °F 43.0 °F 97% 30.31 in 10.0 mi Calm Calm - N/A   Clear
1:35 AM 43.2 °F 41.5 °F 94% 30.31 in 10.0 mi Calm Calm - N/A   Clear
1:55 AM 43.7 °F 42.6 °F 96% 30.31 in 10.0 mi Calm Calm - N/A   Clear
2:15 AM 43.3 °F 42.3 °F 96% 30.32 in 10.0 mi Calm Calm - N/A   Clear
2:35 AM 42.8 °F 41.9 °F 97% 30.32 in 10.0 mi Calm Calm - N/A   Clear
2:55 AM 42.4 °F 41.9 °F 98% 30.31 in 10.0 mi Calm Calm - N/A   Clear
3:15 AM 41.9 °F 40.3 °F 94% 30.31 in 10.0 mi Calm Calm - N/A   Clear
3:35 AM 41.7 °F 40.5 °F 95% 30.31 in 10.0 mi Calm Calm - N/A   Clear
3:55 AM 42.3 °F 41.4 °F 97% 30.31 in 5.0 mi Calm Calm - N/A   Clear
4:15 AM 41.0 °F 40.3 °F 97% 30.31 in 10.0 mi Calm Calm - N/A   Scattered Clouds
4:35 AM 41.4 °F 41.0 °F 99% 30.31 in 10.0 mi Calm Calm - N/A   Clear
4:55 AM 42.3 °F 41.2 °F 96% 30.31 in 5.0 mi Calm Calm - N/A   Clear
5:15 AM 40.1 °F 38.8 °F 95% 30.31 in 10.0 mi Calm Calm - N/A   Mostly Cloudy
5:35 AM 41.5 °F 39.9 °F 94% 30.32 in 10.0 mi Calm Calm - N/A   Overcast
5:55 AM 41.7 °F 40.8 °F 97% 30.32 in 2.0 mi Calm Calm - N/A   Overcast
6:15 AM 42.1 °F 40.1 °F 93% 30.32 in 10.0 mi Calm Calm - N/A   Mostly Cloudy
6:35 AM 42.4 °F 41.0 °F 95% 30.33 in 10.0 mi Calm Calm - N/A   Mostly Cloudy
6:55 AM 43.7 °F 42.6 °F 96% 30.34 in 10.0 mi Calm Calm - N/A   Overcast
7:15 AM 45.0 °F 43.7 °F 95% 30.34 in 10.0 mi Calm Calm - N/A   Overcast
7:35 AM 45.5 °F 44.2 °F 95% 30.35 in 10.0 mi Calm Calm - N/A   Overcast
7:55 AM 46.8 °F 45.1 °F 94% 30.35 in 10.0 mi Calm Calm - N/A   Overcast
8:15 AM 47.7 °F 46.4 °F 95% 30.35 in 10.0 mi Calm Calm - N/A   Overcast
8:35 AM 48.7 °F 47.3 °F 95% 30.35 in 10.0 mi Calm Calm - N/A   Overcast
8:55 AM 50.4 °F 48.9 °F 95% 30.36 in 10.0 mi Calm Calm - N/A   Overcast
9:15 AM 51.6 °F 50.5 °F 96% 30.36 in 10.0 mi Calm Calm - N/A   Overcast
9:35 AM 51.8 °F 50.0 °F 94% 30.36 in 10.0 mi Calm Calm - N/A   Overcast
9:55 AM 55.8 °F 53.6 °F 92% 30.37 in 10.0 mi Calm Calm - N/A   Overcast
10:15 AM 56.5 °F 53.6 °F 90% 30.37 in 10.0 mi SW 3.5 mph - N/A   Overcast
10:35 AM 57.6 °F 53.8 °F 87% 30.36 in 10.0 mi SSW 3.5 mph - N/A   Overcast
10:55 AM 59.7 °F 54.7 °F 83% 30.36 in 10.0 mi SSW 3.5 mph - N/A   Overcast
11:15 AM 61.0 °F 54.5 °F 79% 30.35 in 10.0 mi Calm Calm - N/A   Overcast
11:35 AM 62.1 °F 54.1 °F 75% 30.34 in 10.0 mi SW 3.5 mph - N/A   Overcast
11:55 AM 63.1 °F 54.7 °F 74% 30.32 in 10.0 mi SSW 5.8 mph - N/A   Overcast
12:15 PM 64.9 °F 55.4 °F 71% 30.31 in 10.0 mi SSW 5.8 mph - N/A   Overcast
12:35 PM 67.1 °F 55.4 °F 66% 30.30 in 10.0 mi SW 5.8 mph - N/A   Mostly Cloudy
12:55 PM 69.4 °F 55.4 °F 61% 30.29 in 10.0 mi SSW 6.9 mph - N/A   Scattered Clouds
1:15 PM 69.8 °F 55.6 °F 61% 30.28 in 10.0 mi SSW 9.2 mph - N/A   Scattered Clouds
1:35 PM 70.2 °F 55.6 °F 60% 30.27 in 10.0 mi South 6.9 mph - N/A   Clear
1:55 PM 72.0 °F 55.4 °F 56% 30.26 in 10.0 mi SSW 10.4 mph - N/A   Clear
2:15 PM 71.2 °F 55.2 °F 57% 30.25 in 10.0 mi SSW 9.2 mph - N/A   Clear
2:35 PM 73.4 °F 53.1 °F 49% 30.25 in 10.0 mi South 11.5 mph - N/A   Scattered Clouds
2:55 PM 71.8 °F 49.6 °F 45% 30.25 in 10.0 mi SSW 15.0 mph - N/A   Scattered Clouds
3:15 PM 71.6 °F 48.9 °F 45% 30.25 in 10.0 mi SW 10.4 mph 17.3 mph N/A   Scattered Clouds
3:35 PM 71.2 °F 49.5 °F 46% 30.25 in 10.0 mi SSW 12.7 mph 18.4 mph N/A   Scattered Clouds
3:55 PM 70.0 °F 51.8 °F 52% 30.25 in 10.0 mi SSW 9.2 mph - N/A   Clear
4:15 PM 69.4 °F 50.9 °F 52% 30.25 in 10.0 mi SSW 12.7 mph - N/A   Clear
4:35 PM 67.3 °F 51.6 °F 57% 30.25 in 10.0 mi SSW 8.1 mph - N/A   Clear
4:55 PM 64.9 °F 50.9 °F 60% 30.25 in 10.0 mi SSW 6.9 mph - N/A   Clear
5:15 PM 63.0 °F 50.2 °F 63% 30.25 in 10.0 mi South 5.8 mph - N/A   Clear
5:35 PM 61.0 °F 50.5 °F 68% 30.25 in 10.0 mi SSW 4.6 mph - N/A   Clear
5:55 PM 61.7 °F 51.1 °F 68% 30.25 in 10.0 mi SSW 3.5 mph - N/A   Clear
6:15 PM 61.5 °F 51.8 °F 70% 30.25 in 10.0 mi SSW 3.5 mph - N/A   Clear
6:35 PM 56.7 °F 49.3 °F 76% 30.26 in 10.0 mi Calm Calm - N/A   Clear
6:55 PM 58.1 °F 51.1 °F 77% 30.26 in 10.0 mi Calm Calm - N/A   Clear
7:15 PM 56.7 °F 50.9 °F 81% 30.26 in 10.0 mi Calm Calm - N/A   Clear
7:35 PM 54.0 °F 49.1 °F 84% 30.26 in 10.0 mi Calm Calm - N/A   Clear
7:55 PM 53.6 °F 49.1 °F 85% 30.26 in 10.0 mi SW 3.5 mph - N/A   Clear
8:15 PM 55.6 °F 50.2 °F 82% 30.26 in 10.0 mi Calm Calm - N/A   Clear
8:35 PM 53.6 °F 50.0 °F 88% 30.26 in 10.0 mi SSW 3.5 mph - N/A   Clear
8:55 PM 57.0 °F 51.6 °F 82% 30.25 in 10.0 mi SW 4.6 mph - N/A   Clear
9:15 PM 57.2 °F 52.0 °F 83% 30.25 in 10.0 mi SSW 4.6 mph - N/A   Clear
9:35 PM 57.6 °F 52.0 °F 82% 30.25 in 10.0 mi SW 3.5 mph - N/A   Clear
9:55 PM 57.4 °F 52.2 °F 83% 30.25 in 10.0 mi SW 3.5 mph - N/A   Clear
10:15 PM 57.2 °F 52.0 °F 83% 30.25 in 10.0 mi WSW 3.5 mph - N/A   Clear
10:35 PM 56.3 °F 52.0 °F 85% 30.25 in 10.0 mi Calm Calm - N/A   Clear
10:55 PM 55.9 °F 51.6 °F 85% 30.25 in 10.0 mi Calm Calm - N/A   Clear
11:15 PM 52.7 °F 50.4 °F 92% 30.24 in 10.0 mi Calm Calm - N/A   Clear
11:35 PM 50.9 °F 48.7 °F 92% 30.24 in 10.0 mi Calm Calm - N/A   Clear
11:55 PM 51.3 °F 50.2 °F 96% 30.24 in 10.0 mi Calm Calm - N/A   Clear